DHXYZ EDFE-EDFE

Flight info

Callsign DHXYZ
Flight time 0h 40m
Altitude 1200
Route DCT
Aircraft UH1/L-VGD/A

Departure

Time 2026-04-29 08:42
Airport Frankfurt-Egelsbach Airport (EDFE)

Arrival

Time 2026-04-29 09:23
Airport Frankfurt-Egelsbach Airport (EDFE)
Time Latitude Longitude Altitude Speed Heading
2026-04-29 08:37 49.96205 8.64289 389 ft 0 kts 266°
2026-04-29 08:38 49.96206 8.64289 389 ft 0 kts 266°
2026-04-29 08:39 49.96203 8.64259 392 ft 5 kts 195°
2026-04-29 08:39 49.96169 8.64235 399 ft 6 kts 271°
2026-04-29 08:40 49.96163 8.64103 400 ft 15 kts 266°
2026-04-29 08:40 49.96155 8.63933 405 ft 21 kts 269°
2026-04-29 08:40 49.96145 8.63696 399 ft 24 kts 266°
2026-04-29 08:40 49.96130 8.63425 400 ft 24 kts 264°
2026-04-29 08:41 49.96089 8.63202 397 ft 19 kts 198°
2026-04-29 08:41 49.96039 8.63398 425 ft 50 kts 80°
2026-04-29 08:41 49.96082 8.64067 545 ft 68 kts 69°
2026-04-29 08:41 49.96117 8.64862 664 ft 77 kts 73°
2026-04-29 08:42 49.96155 8.65647 880 ft 70 kts 72°
2026-04-29 08:42 49.96227 8.66426 1009 ft 72 kts 65°
2026-04-29 08:42 49.96358 8.67120 1181 ft 74 kts 66°
2026-04-29 08:42 49.96409 8.67986 1258 ft 87 kts 77°
2026-04-29 08:43 49.96459 8.68924 1359 ft 86 kts 70°
2026-04-29 08:43 49.96608 8.69837 1398 ft 87 kts 65°
2026-04-29 08:43 49.96822 8.70701 1414 ft 87 kts 57°
2026-04-29 08:43 49.97148 8.71505 1455 ft 87 kts 48°
2026-04-29 08:44 49.97286 8.72389 1469 ft 93 kts 101°
2026-04-29 08:44 49.96751 8.72869 1601 ft 102 kts 168°
2026-04-29 08:44 49.96037 8.72317 1413 ft 125 kts 214°
2026-04-29 08:44 49.95513 8.71240 1315 ft 123 kts 229°
2026-04-29 08:45 49.95047 8.70220 1382 ft 111 kts 224°
2026-04-29 08:45 49.94569 8.69286 1439 ft 110 kts 220°
2026-04-29 08:45 49.94196 8.68234 1467 ft 113 kts 245°
2026-04-29 08:45 49.94080 8.67019 1476 ft 116 kts 266°
2026-04-29 08:46 49.94148 8.65740 1435 ft 120 kts 270°
2026-04-29 08:46 49.93809 8.64570 1463 ft 129 kts 204°
2026-04-29 08:46 49.93063 8.63844 1483 ft 126 kts 198°
2026-04-29 08:46 49.92287 8.63235 1436 ft 122 kts 189°
2026-04-29 08:47 49.91504 8.62824 1419 ft 118 kts 184°
2026-04-29 08:47 49.90713 8.62456 1299 ft 119 kts 183°
2026-04-29 08:47 49.89982 8.62625 1362 ft 101 kts 137°
2026-04-29 08:47 49.89387 8.63124 1372 ft 107 kts 154°
2026-04-29 08:48 49.88726 8.62441 1292 ft 124 kts 229°
2026-04-29 08:48 49.88298 8.61282 1270 ft 123 kts 234°
2026-04-29 08:48 49.88033 8.60028 1151 ft 123 kts 247°
2026-04-29 08:48 49.87780 8.58776 1026 ft 121 kts 251°
2026-04-29 08:49 49.87665 8.57506 967 ft 113 kts 259°
2026-04-29 08:49 49.87817 8.56376 1017 ft 107 kts 293°
2026-04-29 08:49 49.88024 8.55274 1073 ft 112 kts 262°
2026-04-29 08:49 49.87783 8.54067 1015 ft 118 kts 236°
2026-04-29 08:50 49.87408 8.53002 1017 ft 113 kts 233°
2026-04-29 08:50 49.87253 8.51845 941 ft 113 kts 298°
2026-04-29 08:50 49.87809 8.51889 888 ft 92 kts 59°
2026-04-29 08:50 49.88060 8.52817 1025 ft 96 kts 40°
2026-04-29 08:51 49.88649 8.53411 1065 ft 102 kts 27°
2026-04-29 08:51 49.89243 8.53971 1161 ft 99 kts 33°
2026-04-29 08:51 49.89814 8.54557 1230 ft 97 kts 28°
2026-04-29 08:51 49.90384 8.55166 1241 ft 103 kts 43°
2026-04-29 08:52 49.90463 8.56185 1197 ft 106 kts 104°
2026-04-29 08:52 49.89910 8.56996 1179 ft 118 kts 142°
2026-04-29 08:52 49.89181 8.57481 1399 ft 112 kts 141°
2026-04-29 08:52 49.88503 8.58023 1459 ft 115 kts 135°
2026-04-29 08:53 49.87747 8.58579 1364 ft 122 kts 140°
2026-04-29 08:53 49.86955 8.59126 1235 ft 124 kts 143°
2026-04-29 08:53 49.86156 8.59522 1100 ft 117 kts 150°
2026-04-29 08:53 49.85508 8.60163 1079 ft 109 kts 122°
2026-04-29 08:54 49.84879 8.60668 1308 ft 104 kts 152°
2026-04-29 08:54 49.84136 8.60906 1369 ft 113 kts 151°
2026-04-29 08:54 49.83344 8.61214 1336 ft 121 kts 150°
2026-04-29 08:54 49.82582 8.61629 1431 ft 112 kts 137°
2026-04-29 08:55 49.82037 8.62373 1424 ft 106 kts 94°
2026-04-29 08:55 49.82326 8.63378 1399 ft 103 kts 39°
2026-04-29 08:55 49.82870 8.64007 1528 ft 97 kts 27°
2026-04-29 08:55 49.83507 8.64472 1470 ft 99 kts 22°
2026-04-29 08:56 49.84052 8.64963 1569 ft 88 kts 45°
2026-04-29 08:56 49.84140 8.65920 1507 ft 97 kts 91°
2026-04-29 08:56 49.83629 8.66689 1484 ft 121 kts 149°
2026-04-29 08:56 49.82838 8.67024 1543 ft 107 kts 117°
2026-04-29 08:57 49.82849 8.67980 1533 ft 97 kts 43°
2026-04-29 08:57 49.83530 8.68330 1516 ft 114 kts
2026-04-29 08:57 49.84325 8.68487 1475 ft 114 kts 15°
2026-04-29 08:57 49.84956 8.69107 1480 ft 104 kts 39°
2026-04-29 08:58 49.85469 8.69812 1511 ft 100 kts 34°
2026-04-29 08:58 49.86013 8.70541 1281 ft 105 kts 39°
2026-04-29 08:58 49.86440 8.71332 1366 ft 90 kts 53°
2026-04-29 08:58 49.86539 8.72313 1306 ft 107 kts 95°
2026-04-29 08:59 49.85945 8.73096 1310 ft 119 kts 152°
2026-04-29 08:59 49.85150 8.73174 1505 ft 115 kts 166°
2026-04-29 08:59 49.84395 8.72980 1644 ft 109 kts 202°
2026-04-29 08:59 49.84140 8.71873 1664 ft 113 kts 255°
2026-04-29 09:00 49.83808 8.70716 1726 ft 118 kts 219°
2026-04-29 09:00 49.83114 8.70035 1712 ft 123 kts 191°
2026-04-29 09:00 49.82332 8.69406 1686 ft 126 kts 189°
2026-04-29 09:00 49.81508 8.68970 1697 ft 125 kts 185°
2026-04-29 09:01 49.80687 8.68527 1638 ft 127 kts 184°
2026-04-29 09:01 49.79763 8.68069 1356 ft 137 kts 182°
2026-04-29 09:01 49.78893 8.67713 1457 ft 123 kts 180°
2026-04-29 09:01 49.78107 8.67425 1701 ft 111 kts 176°
2026-04-29 09:02 49.77334 8.67211 1792 ft 118 kts 176°
2026-04-29 09:02 49.76546 8.66670 1642 ft 135 kts 214°
2026-04-29 09:02 49.76250 8.65211 1244 ft 151 kts 245°
2026-04-29 09:02 49.75526 8.64440 1326 ft 120 kts 157°
2026-04-29 09:03 49.75050 8.65152 1443 ft 92 kts 98°
2026-04-29 09:03 49.74403 8.65447 1489 ft 132 kts 191°
2026-04-29 09:03 49.73701 8.64704 1985 ft 110 kts 197°
2026-04-29 09:03 49.72988 8.64162 2064 ft 120 kts 186°
2026-04-29 09:04 49.72214 8.64238 2101 ft 113 kts 174°
2026-04-29 09:04 49.72041 8.63277 2034 ft 110 kts 321°
2026-04-29 09:04 49.72732 8.63205 1895 ft 103 kts 10°
2026-04-29 09:04 49.73411 8.63502 1906 ft 103 kts 14°
2026-04-29 09:05 49.74204 8.63577 1757 ft 121 kts 357°
2026-04-29 09:05 49.75015 8.63196 1587 ft 122 kts 324°
2026-04-29 09:05 49.75630 8.62408 1320 ft 108 kts 329°
2026-04-29 09:05 49.76299 8.61939 1284 ft 107 kts 346°
2026-04-29 09:06 49.77047 8.61847 1279 ft 109 kts 11°
2026-04-29 09:06 49.77799 8.62154 1323 ft 116 kts 13°
2026-04-29 09:06 49.78600 8.62406 1277 ft 116 kts
2026-04-29 09:06 49.79330 8.62707 1192 ft 98 kts 21°
2026-04-29 09:07 49.79946 8.63072 1282 ft 98 kts 19°
2026-04-29 09:07 49.80642 8.63117 1295 ft 112 kts 349°
2026-04-29 09:07 49.81306 8.63403 1078 ft 110 kts 54°
2026-04-29 09:07 49.81310 8.64528 1191 ft 106 kts 96°
2026-04-29 09:08 49.80855 8.65466 1288 ft 115 kts 126°
2026-04-29 09:08 49.80222 8.66159 1480 ft 109 kts 134°
2026-04-29 09:08 49.79487 8.66478 1617 ft 108 kts 151°
2026-04-29 09:08 49.78966 8.67176 1869 ft 104 kts 119°
2026-04-29 09:09 49.78269 8.67741 2078 ft 130 kts 160°
2026-04-29 09:09 49.77306 8.67754 2102 ft 137 kts 163°
2026-04-29 09:09 49.76392 8.67955 2186 ft 128 kts 153°
2026-04-29 09:09 49.75561 8.68319 2217 ft 120 kts 146°
2026-04-29 09:10 49.74903 8.68890 2377 ft 105 kts 113°
2026-04-29 09:10 49.74831 8.69633 2352 ft 111 kts 69°
2026-04-29 09:10 49.75368 8.70513 2220 ft 121 kts 28°
2026-04-29 09:10 49.76351 8.71195 2189 ft 113 kts 15°
2026-04-29 09:11 49.76845 8.71413 2201 ft 111 kts 13°
2026-04-29 09:11 49.77590 8.71808 2181 ft 117 kts 21°
2026-04-29 09:11 49.78327 8.72250 2240 ft 109 kts 13°
2026-04-29 09:11 49.79122 8.72155 2191 ft 123 kts 343°
2026-04-29 09:12 49.79948 8.71819 2128 ft 123 kts 351°
2026-04-29 09:12 49.80745 8.71774 2156 ft 106 kts 10°
2026-04-29 09:12 49.81453 8.72021 2144 ft 108 kts
2026-04-29 09:12 49.82245 8.72041 2062 ft 116 kts 358°
2026-04-29 09:13 49.83051 8.72077 1942 ft 116 kts
2026-04-29 09:13 49.83819 8.72293 1897 ft 110 kts 16°
2026-04-29 09:13 49.84417 8.72888 1835 ft 102 kts 53°
2026-04-29 09:13 49.84442 8.73975 1860 ft 105 kts 95°
2026-04-29 09:14 49.84096 8.74965 1922 ft 105 kts 111°
2026-04-29 09:14 49.83557 8.75772 1996 ft 114 kts 132°
2026-04-29 09:14 49.82807 8.76308 1989 ft 119 kts 146°
2026-04-29 09:14 49.82055 8.76769 2035 ft 117 kts 140°
2026-04-29 09:15 49.81329 8.77349 2014 ft 118 kts 136°
2026-04-29 09:15 49.80623 8.77999 1980 ft 120 kts 136°
2026-04-29 09:15 49.79866 8.78465 2066 ft 115 kts 143°
2026-04-29 09:15 49.79140 8.78903 2122 ft 109 kts 140°
2026-04-29 09:16 49.78493 8.79544 2104 ft 114 kts 122°
2026-04-29 09:16 49.78135 8.80544 2143 ft 103 kts 84°
2026-04-29 09:16 49.78293 8.81682 1861 ft 115 kts 85°
2026-04-29 09:16 49.77666 8.82427 1752 ft 129 kts 155°
2026-04-29 09:17 49.76802 8.82263 1706 ft 127 kts 198°
2026-04-29 09:17 49.76215 8.81262 1803 ft 123 kts 227°
2026-04-29 09:17 49.75730 8.80239 2054 ft 114 kts 223°
2026-04-29 09:17 49.75232 8.79264 2210 ft 116 kts 219°
2026-04-29 09:18 49.74696 8.78302 2328 ft 121 kts 215°
2026-04-29 09:18 49.74060 8.77450 2433 ft 120 kts 204°
2026-04-29 09:18 49.73539 8.76413 2382 ft 134 kts 241°
2026-04-29 09:18 49.73507 8.75005 2383 ft 128 kts 284°
2026-04-29 09:19 49.74014 8.73909 2261 ft 125 kts 326°
2026-04-29 09:19 49.74779 8.73472 2288 ft 110 kts 354°
2026-04-29 09:19 49.75523 8.73447 2416 ft 109 kts 358°
2026-04-29 09:19 49.76317 8.73453 2398 ft 113 kts
2026-04-29 09:20 49.77111 8.73674 2289 ft 123 kts
2026-04-29 09:20 49.77956 8.73853 2252 ft 119 kts
2026-04-29 09:20 49.78777 8.73884 2262 ft 117 kts 356°
2026-04-29 09:20 49.79579 8.73855 2218 ft 110 kts
2026-04-29 09:21 49.80257 8.74303 2191 ft 107 kts 25°
2026-04-29 09:21 49.80955 8.74710 2170 ft 109 kts 16°
2026-04-29 09:21 49.81670 8.75147 2021 ft 112 kts 26°
2026-04-29 09:21 49.82408 8.75282 1735 ft 114 kts 339°
2026-04-29 09:22 49.83106 8.75170 1522 ft 95 kts 41°
2026-04-29 09:22 49.83154 8.76096 1567 ft 100 kts 111°
2026-04-29 09:22 49.82444 8.76424 1584 ft 119 kts 200°
2026-04-29 09:22 49.82324 8.75774 1499 ft 55 kts 356°
2026-04-29 09:23 49.82631 8.75735 1417 ft 24 kts 352°
2026-04-29 09:23 49.82722 8.75730 1251 ft 7 kts 346°
2026-04-29 09:23 49.82787 8.75721 1103 ft 12 kts 338°
2026-04-29 09:23 49.82805 8.75682 993 ft 5 kts 351°
2026-04-29 09:24 49.82818 8.75695 898 ft 3 kts 351°
2026-04-29 09:24 49.82825 8.75707 869 ft 3 kts 358°
2026-04-29 09:24 49.82816 8.75716 840 ft 1 kts 349°
2026-04-29 09:24 49.82817 8.75720 833 ft 0 kts 349°
2026-04-29 09:25 49.82819 8.75720 824 ft 1 kts 359°
2026-04-29 09:25 49.82816 8.75720 823 ft 0 kts 351°
2026-04-29 09:25 49.82790 8.75724 901 ft 9 kts 349°
2026-04-29 09:26 49.82773 8.75758 1082 ft 41 kts
2026-04-29 09:26 49.83376 8.75549 968 ft 114 kts 343°
2026-04-29 09:26 49.84062 8.74889 1361 ft 120 kts 330°
2026-04-29 09:26 49.84808 8.74222 1521 ft 130 kts 330°
2026-04-29 09:27 49.85570 8.73467 1586 ft 126 kts 332°
2026-04-29 09:27 49.86338 8.72884 1563 ft 119 kts 342°
2026-04-29 09:27 49.87128 8.72506 1408 ft 119 kts 351°
2026-04-29 09:27 49.87947 8.72359 1321 ft 117 kts 354°
2026-04-29 09:28 49.88720 8.72225 1416 ft 110 kts 356°
2026-04-29 09:28 49.89473 8.72173 1484 ft 108 kts 360°
2026-04-29 09:28 49.90259 8.72081 1356 ft 123 kts 349°
2026-04-29 09:28 49.91103 8.71726 1174 ft 128 kts 339°
2026-04-29 09:29 49.91893 8.71160 1193 ft 119 kts 335°
2026-04-29 09:29 49.93221 8.69789 1384 ft 119 kts 324°
2026-04-29 09:29 49.93936 8.69028 1238 ft 128 kts 335°
2026-04-29 09:30 49.94767 8.68610 1197 ft 122 kts 339°
2026-04-29 09:30 49.95514 8.67961 1090 ft 128 kts 319°
2026-04-29 09:30 49.96075 8.66861 829 ft 137 kts 292°
2026-04-29 09:30 49.96138 8.65515 601 ft 116 kts 265°
2026-04-29 09:31 49.96093 8.64441 428 ft 83 kts 274°
2026-04-29 09:31 49.96075 8.63785 412 ft 34 kts 315°
2026-04-29 09:31 49.96172 8.63723 394 ft 6 kts 50°
2026-04-29 09:31 49.96176 8.63743 390 ft 1 kts 190°